Lobo

Go HERE for most recent data if this page is not up to date.

Jump to table bottom
Date/Time Temp deg F RH % 24 Hr Snow (in) Snow Depth (in) H2O (in)
12/10 01:00 10.2 52 1.1 38.5 0.00
12/10 00:00 10.0 57 1.2 38.5 0.00
12/09 23:00 10.1 73 1.0 39.0 0.00
12/09 22:00 9.6 72 1.0 37.4 0.00
12/09 21:00 9.1 73 0.7 38.0 0.00
12/09 20:00 9.6 72 0.7 37.6 0.00
12/09 19:00 10.6 73 0.5 37.5 0.00
12/09 18:00 12.1 80 0.6 38.0 0.02
12/09 17:00 12.8 85 0.0 37.2 0.01
12/09 16:00 13.4 75 1.8 37.0 0.01
12/09 15:00 14.1 77 1.8 37.0 0.02
12/09 14:00 14.6 80 1.4 36.7 0.00
12/09 13:00 14.1 82 1.2 36.8 0.00
12/09 12:00 13.8 85 1.1 36.6 0.01
12/09 11:00 12.7 87 0.8 36.2 0.01
12/09 10:00 12.2 86 0.3 35.9 0.00
12/09 09:00 10.8 85 0.1 35.9 0.00
12/09 08:00 9.8 87 0.0 35.9 0.00
12/09 07:00 10.4 88 -0.0 36.1 0.00
12/09 06:00 13.7 68 0.1 36.1 0.00
12/09 05:00 12.7 68 0.2 36.2 0.00
12/09 04:00 7.6 60 0.4 36.1 0.00
12/09 03:00 6.8 77 0.1 36.2 0.00
12/09 02:00 6.8 67 0.2 36.1 0.00
12/09 01:00 6.6 73 0.0 36.0 0.00
12/09 00:00 6.9 72 0.2 36.4 0.00
.